Regional Weather Roundup
Issued by NWS

Home | Current Version | Previous Version | Text Only | Print | Product List | Glossary Off
Versions: 1 2 3 4 5 6 7 8 9 10 11 12 13 14 15 16 17 18 19 20 21 22 23 24 25 26 27 28 29 30 31 32 33 34 35 36 37 38 39 40 41 42 43 44 45 46 47 48 49 50

000
ASUS43 KMPX 271910
RWRMN
WEATHER ROUNDUP FOR MINNESOTA
NATIONAL WEATHER SERVICE TWIN CITIES/CHANHASSEN MN
100 PM CST SAT DEC 27 2014


NOTE: "FAIR" INDICATES FEW OR NO CLOUDS BELOW 12,000 FEET WITH NO
SIGNIFICANT WEATHER AND/OR OBSTRUCTIONS TO VISIBILITY. N/A MEANS
CURRENT SKY AND/OR WEATHER CONDITIONS ARE NOT AVAILABLE.

MNZ060>063-068>070-272000-
   Twin Cities Metro

CITY           SKY/WX    TMP DP  RH WIND       PRES   REMARKS
TWIN CITIES    MOSUNNY   24  15  68 NW10      30.08S WCI  14
ST PAUL        MOSUNNY   24  16  71 NW9       30.09S WCI  14
CRYSTAL        SUNNY     25  15  66 NW8       30.07S WCI  16
BLAINE         MOSUNNY   27  18  69 W9        30.06  WCI  17
LAKEVILLE      PTSUNNY   21  16  79 W13       30.08S WCI   9
EDEN PRAIRIE   MOSUNNY   25  15  66 W13       30.07S WCI  14
SOUTH ST PAUL  PTSUNNY   26  16  67 W9        30.07S WCI  16
LAKE ELMO      CLOUDY    27  19  74 W9        30.07S WCI  17
$$
MNZ001>005-007-008-013>017-022>024-027-028-272000-
   Northwest Minnesota

CITY           SKY/WX    TMP DP  RH WIND       PRES   REMARKS
BEMIDJI        CLOUDY    15   3  58 W8        29.98F WCI   5
HALLOCK          N/A     12   9  85 S7        30.01F WCI   2
ROSEAU         LGT SNOW  12   9  85 SW9       29.99F WCI   0
WARROAD        LGT SNOW  10   7  85 W8        29.98F WCI  -1
THIEF RVR FALL CLOUDY    12   9  85 SW9       30.00F WCI   0
CROOKSTON      PTSUNNY   12   9  85 S10       30.03F WCI  -1
FOSSTON        FLURRIES  10   7  85 SW10      30.00F WCI  -3
DETROIT LAKES  MOSUNNY   18  14  86 SW8       30.03F WCI   7
MOORHEAD       FLURRIES  18  14  86 SW9       30.06F WCI   6
PARK RAPIDS    CLOUDY    20   3  48 W7        29.99F WCI  11
MAHNOMEN       FLURRIES  14  10  82 SW12      30.01F WCI   0
$$
MNZ006-009>011-018-025>026-272000-
   North Central Minnesota

CITY           SKY/WX    TMP DP  RH WIND       PRES   REMARKS
BAUDETTE       CLOUDY    12   5  73 SW7       29.96F WCI   1
FLAG ISLAND    LGT SNOW   9   5  85 SW7       29.96F WCI  -3
INTL FALLS     CLOUDY    15   6  67 SW5       29.94F WCI   8
WASKISH        CLOUDY    12   7  79 CALM      29.98F
BIG FORK       PTSUNNY   19   7  58 SW8       29.97F WCI   9
LONGVILLE      CLOUDY    19   9  63 SW5       29.99F WCI  13
GRAND RAPIDS   SUNNY     18   7  62 SW8       29.97F WCI   7
CRANE LAKE     SUNNY     14   3  62 CALM      29.98F
ORR            SUNNY     16   5  62 CALM      29.93F
COOK           SUNNY     18   7  62 W3        29.95F
WALKER         CLOUDY    17   3  53 W3        29.99F
$$
MNZ012-019>021-037-272000-
   Northeast Minnesota

CITY           SKY/WX    TMP DP  RH WIND       PRES   REMARKS
DULUTH         SUNNY     21   9  59 W8        29.94F WCI  11
ELY            SUNNY     16   7  67 NW6       29.93F WCI   7
HIBBING        SUNNY     20   6  55 NW9       29.96F WCI   9
EVELETH        SUNNY     19   9  63 W8        29.96F WCI   9
DULUTH HARBOR  SUNNY     25  14  63 W10       30.01F WCI  15
TWO HARBORS    SUNNY     25  12  58 NW7       29.94S WCI  17
SILVER BAY     SUNNY     25  10  54 NW7       29.92S WCI  17
GRAND MARAIS     N/A     24  13  62 NW9G16    29.93F WCI  14
G MARAIS ARPRT FLURRIES  16   9  73 NW5       29.86F WCI   9
$$
MNZ029>031-032-039>041-046>048-054>057-064-272000-
   West Central Minnesota

CITY           SKY/WX    TMP DP  RH WIND       PRES   REMARKS
FERGUS FALLS   SUNNY     18   9  68 SW8       30.10F WCI   7
WHEATON        SUNNY     21  12  68 SW10      30.11F WCI  10
MORRIS         SUNNY     19  10  68 SW8       30.09F WCI   9
ALEXANDRIA     SUNNY     18   8  65 W8        30.06F WCI   8
ELBOW LAKE     PTSUNNY   18  10  71 W8        30.07F WCI   8
WADENA         CLOUDY    16   7  67 SW8       30.03F WCI   5
GLENWOOD       SUNNY     18   9  68 W8        30.08S WCI   7
APPLETON       SUNNY     18   9  68 SW9       30.12F WCI   6
BENSON         SUNNY     18   9  68 W6        30.11F WCI   9
ORTONVILLE     SUNNY     18   9  68 SW7       30.11F WCI   8
MADISON        SUNNY     21  10  63 SW9       30.13F WCI  11
WILLMAR        FAIR      16   9  73 W9        30.11F WCI   4
$$
MNZ033>034-036-042>043-049>051-058-059-272000-
   Central Minnesota

CITY           SKY/WX    TMP DP  RH WIND       PRES   REMARKS
ST CLOUD       SUNNY     24  11  57 W9        30.07S WCI  14
SAUK CENTRE    FAIR      17   7  63 W12       30.07S WCI   4
PAYNESVILLE    SUNNY     18   5  57 SW8       30.09S WCI   7
AITKIN         SUNNY     27   9  46 SW3       29.99F
PINE RIVER     CLOUDY    19   7  58 SW5       30.04F WCI  13
BRAINERD       SUNNY     21   7  54 W8        30.03F WCI  11
STAPLES        PTSUNNY   18   5  57 W8        30.04S WCI   7
LONG PRAIRIE   FAIR      19   5  53 SW12      30.06S WCI   7
LITTLE FALLS   SUNNY     21   7  53 W3        30.05F
LITCHFIELD     SUNNY     18   9  68 W6        30.09F WCI   9
BUFFALO        SUNNY     22  15  72 SW9       30.10R WCI  12
MAPLE LAKE     SUNNY     23  15  72 W9        30.09S WCI  13
$$
MNZ037-044-045-052-053-272000-
   East Central Minnesota

CITY           SKY/WX    TMP DP  RH WIND       PRES   REMARKS
PRINCETON      SUNNY     25  16  68 W8        30.05S WCI  16
MORA           SUNNY     27  12  54 NW7       30.05S WCI  19
CAMBRIDGE      SUNNY     27  14  59 W7        30.03F WCI  19
RUSH CITY      SUNNY     26  15  63 W6        30.04F WCI  19
MOOSE LAKE     SUNNY     25  10  54 NW7       29.99S WCI  17
HINCKLEY       FAIR      27  16  63 W5        30.02S WCI  21
CLOQUET        SUNNY     21   9  58 W8        29.97S WCI  12
MCGREGOR       SUNNY     25  10  54 SW3       30.00F
$$
MNZ071>073-080-081-089-090-097-098-272000-
   Southwest Minnesota

CITY           SKY/WX    TMP DP  RH WIND       PRES   REMARKS
MONTEVIDEO     SUNNY     18  14  86 W8        30.14F WCI   7
GRANITE FALLS  SUNNY     15   9  75 W9        30.15F WCI   3
CANBY          SUNNY     20  10  65 W12       30.14F WCI   8
MARSHALL       SUNNY     18   7  62 W10       30.13F WCI   6
REDWOOD FALLS  SUNNY     15   6  67 W13       30.14F WCI   1
OLIVIA         SUNNY     18   9  68 W10       30.12F WCI   6
PIPESTONE        N/A     12   9  85 W10       30.13F WCI  -1
WINDOM         SUNNY     18  10  73 W13       30.13F WCI   4
WORTHINGTON    SUNNY     18 -27  12 W13       30.13F WCI   4
JACKSON        SUNNY     19  10  68 W15       30.13F WCI   5
TRACY          SUNNY     18  12  75 W9        30.13F WCI   7
SLAYTON        SUNNY     14   9  80 W10G16    30.12F WCI   1
$$
MNZ065>067-074>077-082>085-091>093-272000-
   South Central Minnesota

CITY           SKY/WX    TMP DP  RH WIND       PRES   REMARKS
MANKATO        CLOUDY    18  10  73 W14       30.12S WCI   4
NEW ULM        SUNNY     12   7  79 W13       30.13F WCI  -3
ST JAMES       SUNNY     18   7  62 W15G21    30.15F WCI   3
FAIRMONT       SUNNY     18   7  62 W16       30.14S WCI   3
GLENCOE        SUNNY     18  13  80 W7        30.11S WCI   9
FARIBAULT      CLOUDY    25  18  74 W15       30.10R WCI  12
OWATONNA       MOSUNNY   21  16  79 W15       30.09R WCI   8
WASECA         PTSUNNY   19  14  79 W15       30.12S WCI   5
ALBERT LEA     CLOUDY    19  18  93 W10G20    30.10S WCI   8
$$
MNZ078>079-086>088-094>096-272000-
   Southeast Minnesota

CITY           SKY/WX    TMP DP  RH WIND       PRES   REMARKS
ROCHESTER      CLOUDY    22  19  89 W20       30.05S WCI   7
RED WING       CLOUDY    27  19  74 NW12G17   30.06S WCI  16
STANTON        CLOUDY    26  19  75 W10       30.07S WCI  16
DODGE CENTER   CLOUDY    23  19  86 W15       30.06R WCI  10
WINONA         CLOUDY    30  27  86 W10       30.06R WCI  21
AUSTIN         CLOUDY    21  18  86 NW15G23   30.08R WCI   8
PRESTON        CLOUDY    23  20  88 W14       30.06R WCI  11
$$
ABBREVIATIONS USED IN REMARKS
   TC - TEMPERATURES IN CELSIUS
  WCI - WIND CHILL INDEX
   HX - HEAT INDEX
  VSB - VISIBILITY
$$


USA.gov is the U.S. government's official web portal to all federal, state and local government web resources and services.